Location: Newark
(54.4000°N, 32.4500°E)
Time: 11:44:17
(UTC+00:00)

ISS - Pass Details

Date: 24 January 2020
Orbit: 416 x 422 km, 51.6° (Epoch: 20 February)

Event Time Altitude Azimuth Distance (km) Brightness Sun altitude
Rises 15:48:44 0° 214° (SW) 2,370 0.9 -13.6°
Reaches altitude 10° 15:51:13 10° 196° (SSW) 1,507 -0.5 -14.0°
Maximum altitude 15:53:42 19° 149° (SSE) 1,072 -1.9 -14.3°
Enters shadow 15:54:36 17° 127° (SE) 1,139 -1.9 -14.4°
